Home > Weather > San Buenaventura > Past weeks

Flag for USA Weather for the Past 2 Weeks in San Buenaventura, California, USA

Now
64 °F

Sunny.


Feels Like: 64 °F
Forecast: 52 / 63 °F
Wind: 12 mph from Southwest

Location: Oxnard Airport

Current Time: May 6, 2016 at 4:07:30 PM

Latest Report: May 6, 2016 at 2:51 PM


Visibility: 10 mi

Pressure: 29.89 "Hg

Humidity: 68%

Dew Point: 53 °F

Location of San BuenaventuraLocation

Historic Weather in San Buenaventura — Graph

°F

San Buenaventura Temperature Yesterday

Maximum temperature yesterday: 66 °F (at 12:51 PM)
Minimum temperature yesterday: 58 °F (at 12:51 AM)
Average temperature yesterday: 61 °F

High & Low Weather Summary for the Past Weeks

 TemperatureHumidityPressure
High69 °F (Apr 21, 2:51 PM)90% (Apr 21, 8:51 PM)30.06 "Hg (Apr 21, 8:51 PM)
Low46 °F (Apr 26, 5:51 AM)28% (Apr 25, 6:51 PM)29.70 "Hg (Apr 27, 6:51 PM)
Average59 °F74%29.91 "Hg
* Reported Apr 21 2:51 PM — May 6 2:51 PM, San Buenaventura, Weather by CustomWeather, © 2016

Note: Actual official high and low records may vary slightly from our data, if they occured in-between our weather recording intervals... More about our weather records

Advertising

San Buenaventura Weather History for the Previous 24 Hours

Scroll right to see more
 ConditionsComfort  
Time TempWeatherWind HumidityBarometerVisibility
2:51 PM
Fri, May 6
64 °FSunny.12 mph68%29.89 "Hg10 mi
1:51 PM66 °FSunny.10 mph63%29.89 "Hg10 mi
12:51 PM64 °FPassing clouds.9 mph68%29.89 "Hg10 mi
11:51 AM65 °FPassing clouds.10 mph66%29.89 "Hg10 mi
10:51 AM63 °FPassing clouds.7 mph70%29.88 "Hg10 mi
9:58 AM64 °FScattered clouds.7 mph70%29.88 "Hg10 mi
8:51 AM61 °FOvercast.6 mph78%29.87 "Hg10 mi
7:51 AM60 °FLow clouds.6 mph83%29.86 "Hg10 mi
6:51 AM59 °FOvercast.5 mph87%29.85 "Hg10 mi
5:51 AM58 °FMostly cloudy.5 mph87%29.83 "Hg10 mi
4:51 AM58 °FOvercast.3 mph90%29.82 "Hg10 mi
3:51 AM58 °FOvercast.6 mph90%29.82 "Hg10 mi
2:51 AM58 °FOvercast.6 mph87%29.84 "Hg10 mi
1:51 AM57 °FPassing clouds.3 mph90%29.85 "Hg10 mi
12:51 AM57 °FClear.5 mph90%29.86 "Hg10 mi
11:51 PM
Thu, May 5
58 °FOvercast.5 mph87%29.87 "Hg10 mi
10:51 PM59 °FOvercast.6 mph84%29.88 "Hg10 mi
9:51 PM60 °FMostly cloudy.9 mph83%29.88 "Hg10 mi
8:51 PM61 °FOvercast.6 mph78%29.86 "Hg10 mi
7:51 PM61 °FOvercast.7 mph78%29.85 "Hg10 mi
6:51 PM62 °FOvercast.8 mph70%29.85 "Hg10 mi
5:51 PM63 °FOvercast.7 mph68%29.86 "Hg10 mi
4:51 PM65 °FScattered clouds.12 mph63%29.88 "Hg10 mi
Weather by CustomWeather, © 2016

See weather overviewHow to use our weather pages